Henderson City-County (EHR)

 

Airport Diagram
No Airport Diagram Available
Current Weather/Forecast (VFR Conditions)
METAR KEHR 182256Z AUTO 33007KT 10SM SCT070 OVC085 15/06 A2991 RMK AO2 SLP130 T01500056
TAF

Airport Information

All Charts
General
Chart Name View
TAKEOFF MINIMUMS
ALTERNATE MINIMUMS
TAKEOFF MINIMUMS
ALTERNATE MINIMUMS

Approaches
Chart Name Download
RNAV (GPS) RWY 09
RNAV (GPS) RWY 27
VOR-A
RNAV (GPS) RWY 09
RNAV (GPS) RWY 27
VOR-A


Airport Statistics
Departures Arrivals Local
All Collected Stats since June 2016: 14 11 1
2021 Stats: 1 6 0
April Stats: 0 0 0

Inbound Traffic (Arrivals) - 0

No inbound traffic.


Outbound Traffic (Departures) - 0

No outbound traffic.


Local Traffic (Pattern) - 0

No local traffic.